Regional Weather Roundup
Issued by NWS Green Bay, WI

Home | Current Version | Previous Version | Text Only | Print | Product List | Glossary On
Versions: 1 2 3 4 5 6 7 8 9 10 11 12 13 14 15 16 17 18 19 20 21 22 23 24 25 26 27 28 29 30 31 32 33 34 35 36 37 38 39 40 41 42 43 44 45 46 47 48 49 50
000
ASUS43 KGRB 011600
RWRGRB

NORTH-CENTRAL AND NORTHEAST WISCONSIN REGIONAL WEATHER ROUNDUP
NATIONAL WEATHER SERVICE GREEN BAY WI
1100 AM CDT TUE SEP 01 2015

WIZ005-009-010>012-018-019-011700-
NORTH CENTRAL WISCONSIN

CITY           SKY/WX    TMP DP  RH WIND       PRES   REMARKS
IRONWOOD       CLOUDY    79  72  78 SW14      29.90S
MANITOWISH WTR NOT AVBL
ARBOR VITAE    NOT AVBL
EAGLE RIVER    NOT AVBL
LAND O LAKES   NOT AVBL
RHINELANDER    MOSUNNY   77  69  76 VRB6      30.00S
PHILLIPS       NOT AVBL
ANTIGO         NOT AVBL
TOMAHAWK       NOT AVBL
MERRILL        NOT AVBL
$$

WIZ013-073-011700-
NORTHEAST WISCONSIN

CITY           SKY/WX    TMP DP  RH WIND       PRES   REMARKS
IRON MOUNTAIN  PTSUNNY   80  71  74 SE6       29.97S
MARINETTE      PTSUNNY   77  70  78 SW6       29.97F
$$

WIZ017-030-035>037-045-011700-
CENTRAL WISCONSIN

CITY           SKY/WX    TMP DP  RH WIND       PRES   REMARKS
MEDFORD        NOT AVBL
WAUSAU         MOSUNNY   78  71  79 S7        29.98S
MOSINEE        NOT AVBL
MARSHFIELD     MOSUNNY   81  70  69 SW6       29.99S
WISC RAPIDS    SUNNY     82  70  66 CALM      30.00S
STEVENS POINT  NOT AVBL
WAUPACA        NOT AVBL
SHAWANO        NOT AVBL
CLINTONVILLE   NOT AVBL
WAUTOMA        NOT AVBL
$$

WIZ038-039-048-051-011700-
FOX VALLEY

CITY           SKY/WX    TMP DP  RH WIND       PRES   REMARKS
NWS GREEN BAY  SUNNY     80  72  76 SW7       29.99S HAZE
APPLETON       MOSUNNY   79  72  78 SW7       29.99S
OSHKOSH        SUNNY     81  73  76 SW5       30.00S
FOND DU LAC    SUNNY     81  74  79 VRB7      30.01S
$$

WIZ022-050-052-011700-
EAST CENTRAL WISCONSIN

CITY           SKY/WX    TMP DP  RH WIND       PRES   REMARKS
EPHRAIM        NOT AVBL
STURGEON BAY   MOSUNNY   81  72  74 S7        30.01S
MANITOWOC      NOT AVBL
SHEBOYGAN      SUNNY     82  74  76 S8        30.00F
$$

LMZ563-521-522-541>543-011700-
LAKESHORE

STATION/POSITION TIME  TEMP    WIND        PRES    VSBY  WAVE
                       AIR SEA DIR/SP/G                  HT/PER
                 (UTC) (F)     (DEG/KT/KT) (MB)    (MI)  (FT/S)
SHEBOYGAN LKSHOR 1500   66     170/ 17/ 18 1016.2F
KEWAUNEE LKSHORE 1500   51     160/  8/  9 1015.0S
ALGOMA MARINA    1514             CALM       N/A
NORTHPORT PIER   1500   67     150/  8/ 10 1015.2F
N MID LAKE BUOY  1450   66 65  190/ 14/ 14 1015.2F         2/ 4
S GREEN BAY BUOY 1530   70 64  190/  2/  2 1016.6F
SISTER BAY LKSHO 1504   80     180/  7/  9   N/A
CHAMBERS ISLAND  1500   75     190/  6/  9 1015.2S
MENOMINEE LKSHOR 1500   66     180/  5/  6 1014.2F
$$



USA.gov is the U.S. government's official web portal to all federal, state and local government web resources and services.